TIMESTAMP,CO2_1_1_1,H2O_1_1_1,TAU_1_1_1,TAU_SSITC_TEST_1_1_1,H_1_1_1,H_SSITC_TEST_1_1_1,LE_1_1_1,LE_SSITC_TEST_1_1_1,FC_1_1_1,FC_SSITC_TEST_1_1_1,WD_0_0_1,WS_0_0_1,WS_MAX_0_0_1,U_SIGMA_0_0_1,V_SIGMA_0_0_1,W_SIGMA_0_0_1,USTAR_0_0_1,MO_LENGTH_0_0_1,ZL_0_0_1,FETCH_MAX_0_0_1,FETCH_70_0_0_1,FETCH_80_0_0_1,FETCH_90_0_0_1,PA_0_0_1,RH_0_0_1,TA_0_0_1,VPD_0_0_1,T_SONIC_0_0_1,T_SONIC_SIGMA_0_0_1
[yyyymmddHHMMSS],[mmolCO2 mol-1],[mmolH2O mol-1],[kg m-1 s-2],[#],[W m-2],[#],[W m-2],[#],[umolCO2 m-2 s-1],[#],[Decimal degrees],[m s-1],[m s-1],[m s-1],[m s-1],[m s-1],[m s-1],[m],[#],[m],[m],[m],[m],[kPa],[%],[deg C],[hPa],[deg C],[deg C]
20220121003000,423.12427336897605,1.0133978936555652,7.1250792624319811E-002,1,-37.180818231414442,0,1.4281668375476124,0,5.2389685368814123E-002,1,173.09080167915573,2.1089578905006321,3.5301322349884705,0.45356393328484962,0.38771042593991134,0.29787382574023669,0.23434572081202670,29.127446270875581,0.65230572647208096,103.35099147203262,188.95857451898755,226.13515300589768,283.09437738994649,95.341957299089771,61.016896551724138,-17.232758620689651,0.61745716650335969,-17.715226877955104,0.28833272292049766
20220121010000,423.23411703702072,0.99066573166155070,3.3962271655208882E-002,0,-16.943864353529225,0,0.84380972285820333,0,5.9712081670935904E-002,0,164.01569985538822,1.8088673361419898,2.8876573218519423,0.34994708177107459,0.33843210354555986,0.23009833389180132,0.16173407791551145,21.009582582320860,0.90434923804664813,181.10546110100202,1658.0000000000000,3034.0000000000000,8145.0000000000000,95.334831577130799,60.678333333333335,-17.436999999999983,0.61220024254794669,-18.001052313759828,0.24022826554742538
20220121013000,423.07377076549744,0.96513984682649923,6.7213197061582325E-002,0,-35.927510861822519,0,1.4826811444878119,0,0.24144096967441789,1,163.20900532561774,2.0184196528561125,3.5353393662112764,0.45867124032030049,0.39771493627358512,0.27106309406352874,0.22745753703689434,27.557806423255105,0.68945981070418361,108.82253851643918,198.96230757658884,238.10706648677288,298.08179242906817,95.318683064670140,60.079999999999998,-17.631000000000000,0.61142806268928118,-18.106056726243708,0.28431207748170689
20220121020000,423.06554717572828,0.93937830515076970,9.4222580773022341E-002,1,-46.360862502971628,0,1.7201442785283008,0,0.11350971216965086,0,178.40958470324563,2.3720166701481822,4.0550980610095690,0.51611205441098829,0.52465064799000405,0.35687059656458936,0.26922793724863275,35.412103163319479,0.53653972237606484,99.940699622284527,182.72347336084817,218.67332938666090,273.75305967086399,95.310698839346486,59.329000000000001,-17.803333333333313,0.61392664365238203,-18.309125691209431,0.32239479320579212
20220121023000,423.26144061231651,0.91384153750816133,7.4666599256134059E-002,0,-27.309189103017694,0,1.0914480424085342,0,-5.7569342772085544E-002,2,194.09021661774614,2.4519977405092104,4.3916079358371540,0.53157114628255908,0.44605355602476410,0.35252383721879144,0.23949332388345565,42.317358840415430,0.44898832348331585,91.904936223999883,168.03153499349719,201.09083153435895,251.74185877487733,95.312678321180556,59.500666666666667,-18.162666666666667,0.59301283038426944,-18.690699556986431,0.33834463830330069
20220121030000,423.61724731315292,0.89653278035160944,0.10041670181311929,0,-42.433067975575213,0,0.89181278517091334,0,9.6121952849890405E-002,0,193.33719982398182,2.4097822861381126,4.2526531860778958,0.56747437203345052,0.48757668899534184,0.36650997053459050,0.27747033168938062,42.348169309237555,0.44866166141107455,100.22117901266706,183.23627914078094,219.28702693281670,274.52133617465103,95.295495388888895,61.068666666666665,-18.695666666666654,0.54479845172070518,-19.255810467614026,0.26767495990611917
20220121033000,423.77019544652990,0.87241975357742541,8.7731426043908545E-002,0,-36.316411135629487,0,1.3274851572425324,0,4.4470251730730277E-002,2,204.78764616110547,2.6225971606209750,5.9525205471467242,0.66095031178073982,0.58098982436212476,0.38841632321222863,0.25922182461900095,40.336235744233313,0.47104048380906099,90.605418794643512,165.65560267280719,198.24744736807492,248.18227920692922,95.263588685546878,61.155333333333331,-19.035666666666657,0.52803896230064606,-19.607606729295469,0.35225611056649231
20220121040000,424.31751211589284,0.84899003338687862,6.6036702157608373E-002,0,-36.149058215081361,0,1.1852960572548494,0,0.13355753747021287,0,193.19341629685087,2.3669195049204594,4.9031058142201749,0.54021351015964025,0.67000150580646634,0.35854788564282530,0.22461066625939324,26.359791141083516,0.72079478544832687,86.131392391490593,157.47565549030861,188.45813977828570,235.92722774601029,95.253279124565978,63.053333333333335,-19.711000000000013,0.47398676842895826,-20.353352912055016,0.34796813325985110
20220121043000,424.67866906115557,0.82991401156872002,0.13854241602808123,0,-52.161322690200237,0,1.5889543910180921,1,0.61892284025153887,1,180.97715678538563,2.6584711288849396,5.3348994982795643,0.73351659259209134,0.64918009928783016,0.44646137248963669,0.32493507275903727,55.308254028642267,0.34352919530167314,97.110247349538469,177.54850387981662,212.48021262351381,266.00001238537340,95.254113989286310,65.003000000000000,-20.327666666666659,0.42572654958378336,-20.973138648079725,0.25177531112152252
20220121050000,424.46296516266341,0.81437451850162323,0.14395823125689647,0,-61.574193996131115,0,1.2648567387363892,0,0.65312004979114735,0,187.42156511095556,2.9338782133157157,5.7790111761455183,0.79419724553554660,0.68240244251729609,0.52941819877163976,0.33118097702556037,49.606328883100495,0.38301564392669207,86.033603446396597,157.29686611049237,188.24417455409042,235.65936867535493,95.251649605468742,64.186333333333337,-20.400333333333322,0.43293169446403185,-20.970092498779252,0.23868811396150483
20220121053000,424.41992126529982,0.79870074495644294,0.21403631511942986,0,-59.327613536999216,0,2.3876090674703496,0,0.56282654628412176,0,192.47574348051148,3.1110798340465529,6.5414989955638836,0.83997969093692282,0.72387160615281954,0.55767938532252703,0.40374365870979917,93.281841714621848,0.20368380009184323,96.701185515920216,176.80060838438206,211.58517273065345,264.87952864880964,95.251119561848967,63.492333333333335,-20.499333333333340,0.43755580171914377,-21.107622238159109,0.27120878514124497
20220121060000,424.77911890551451,0.77571937782847500,0.15897789364318157,0,-55.748694803089194,0,1.2839604839387744,0,0.37139948385603905,0,188.73967043880359,2.9725367481338734,5.9390435018126917,0.72890703175247573,0.66025221264563438,0.48814922767713170,0.34759465192724387,63.341734261806081,0.29996021140609430,95.427002719252457,174.47099585231351,208.79722152111020,261.38934456478711,95.242030802951405,64.693333333333328,-21.052666666666653,0.40331739681615103,-21.694003310309455,0.27471123212502602
20220121063000,425.08643672721388,0.77268110980272242,0.11452409890087645,0,-38.851048881588042,0,0.36548646663004103,0,0.31684969976481314,0,190.79137494696454,2.9758729307941794,5.5352697080309001,0.67146151783742036,0.67843776114912691,0.50324871215361744,0.29483683523103932,55.459713175222632,0.34259102530823227,81.638338003569515,149.26091908298935,178.62719837167811,223.62005568688315,95.220576323684654,66.544666666666672,-21.424000000000007,0.36999826477383196,-22.095263697985956,0.21022239314015381
20220121070000,425.37464242130142,0.77139089764612268,0.19651576886804129,0,-45.297316247381559,0,0.49823525590290335,0,0.16328741287293741,2,193.02709986659912,2.8856550795184757,5.8428706168384013,0.87570161034778415,0.79278160436095801,0.56711942589867070,0.38612985386306486,106.82742270709019,0.17785695394052561,92.066574631572934,168.32706155446675,201.44450134930267,252.18461141519990,95.196044445370674,67.463333333333338,-21.603000000000009,0.35425431971704913,-22.332332903302358,0.23472777870005210
20220121073000,426.04230730353243,0.76190214504122800,0.24451162385698449,0,-53.101425140611049,0,0.36484763745542770,0,0.54121478470527284,0,182.78447485806558,3.1507887716248755,6.2880832993977922,0.92400282947463097,0.78891740198295834,0.61437909473032903,0.43036336617550969,126.16289512867236,0.15059895368303078,94.183319404438748,172.19714610038500,206.07600411738181,257.98270328672322,95.189178694444450,69.134000000000000,-22.024333333333345,0.32388581041214065,-22.741434357537116,0.18741696511030023
20220121080000,426.12414946738625,0.76541669090656650,0.23358824935564770,0,-57.569757186765635,0,0.13346367256257446,0,0.74346920059932931,0,180.05121165521723,3.0902542066125362,5.7410837377468908,0.88878841955038368,0.77118382619824044,0.61873167646507532,0.42062351167830198,108.62745790226901,0.17490973614695191,91.953413376515968,168.12016668929141,201.19690103737366,251.87464520598667,95.165004160590271,69.951333333333338,-22.108666666666664,0.31298309991012019,-22.826341539170983,0.18262660716067869
20220121083000,426.02838105906778,0.76965672651017170,0.19423393173909198,0,-52.684062464317989,0,3.8639305530307422E-002,0,0.71700388443235130,0,176.40670470399627,3.2256598215202592,6.1447416053271375,0.83539370946458535,0.79707060913201988,0.57493830175742666,0.38361878372980951,90.034837474847109,0.21102942519675230,90.589486436950367,165.62647324157928,198.21258687865563,248.13863801087246,95.145543591362852,70.149666666666661,-22.080333333333328,0.31169194120668581,-22.792459600236668,0.20273658942546205
20220121090000,425.64547982325968,0.77716710233212205,0.23034872379800675,0,-71.320256740237141,0,0.14268429589893331,0,1.0539374414817424,0,174.62019963505728,3.3014532579924314,6.6760746561655671,0.89306986154661139,0.85219598312077760,0.62241458243239955,0.41803652866191721,86.049103459310018,0.22080415990602989,91.067303793213924,166.50007576085869,199.25806597303639,249.44745377597468,95.122753693951438,69.174000000000007,-21.812666666666672,0.32952592396068114,-22.511388073937326,0.22599126845649598
20220121093000,425.60804487090383,0.77264513928588630,0.22427307946369698,0,-70.226681369116719,0,0.84383436143319657,0,1.0550185322580981,0,169.06240046165649,2.7826219836201207,6.0157778164346869,0.93656952410646921,0.75100204094616752,0.59044985466244648,0.41250463926759895,83.962584710678982,0.22629127087345893,93.983486843851892,171.83178844630589,205.63876431909603,257.43533094403136,95.118206557725699,68.706000000000003,-21.802333333333337,0.33483174203038174,-22.507584582010907,0.23260836714801814
20220121100000,426.13941974244813,0.75917832567817511,0.23673866654201114,0,-71.323822873705382,0,0.65593557834421101,1,1.1787343864074367,0,166.44779664117428,2.8015679990003641,6.1446367707158487,0.89193467631375212,0.77303005000400216,0.58657882846731391,0.42357968503178717,89.503495679383661,0.21228221150223167,96.503239248660549,176.43869947610744,211.15206020027367,264.33732315577669,95.108634134331609,69.309666666666672,-22.103666666666669,0.31980704009112015,-22.823438475714823,0.26845319795530631
20220121103000,426.45401132260224,0.73274531964941936,0.28072802108153067,0,-77.961193731341723,0,0.74675500048258114,0,2.3120456238692118,0,173.24133876713100,2.9987421844567130,6.4699249489056285,0.97164300380903157,0.84752230418132990,0.64107181399764868,0.46086852743392254,105.46274368779430,0.18015840794211160,96.159278195889073,175.80982897088992,210.39946282129645,263.39516054375105,95.102189729166653,69.518666666666661,-22.541333333333341,0.30562760302033554,-23.259321701897477,0.23256412852758240
20220121110000,426.16732566773464,0.72309325677040548,0.30121054319409829,0,-67.809729311856998,0,0.95558424518121632,1,1.4274154740014413,0,170.40626753542625,2.9120343826717958,6.2063091560290120,0.93757185225194950,0.83761895055944335,0.66776848700109126,0.47741636049536279,134.76503785640600,0.14098612149127848,95.735277792381041,175.03462100528438,209.47173687734366,262.23375774988745,95.081213681945570,68.721000000000004,-22.563333333333333,0.31301770076028390,-23.279932503605352,0.26320621427323176
20220121113000,426.10661032699619,0.71949396707204483,0.29432793590252476,0,-88.622860050844977,0,0.13881096338052706,0,2.6081331862600918,0,170.75047706002664,2.8960588301570582,6.7042792157249007,0.99699995816132714,0.87292487054971579,0.66652093354698405,0.47191906641330833,99.572136200017965,0.19081643444741694,94.994373719809914,173.68001206139013,207.85061594345396,260.20430670986565,95.051754173483175,68.898666666666671,-22.652666666666676,0.30879621084624848,-23.354841914807110,0.30332784071071267
20220121120000,425.88227220677095,0.71744390927522894,0.23749642670823218,0,-66.403452249575267,0,0.53483449946253991,1,1.6777008526762216,0,167.02510463109277,2.9488525320335288,6.4459949067323423,0.94945768758179983,0.87035792901994491,0.62090232878617579,0.42397773171514069,96.354053626868946,0.19718942052586075,92.280663077688786,168.71848351397435,201.91293346426986,252.77103283696192,95.036619482421870,68.493666666666670,-22.620000000000005,0.31372047192204167,-23.332574438730887,0.24102807551670513
20220121123000,426.14562883649154,0.70514579261594668,0.34831188018558035,0,-76.505378150253321,0,0.64403378866844296,0,1.8158092798446086,0,167.14985111688330,3.2861449290065377,7.8158172017063574,1.1228322545929283,0.93572372764713097,0.71186498770864215,0.51327765138129555,148.35166093587807,0.12807406320993167,96.387047506480656,176.22626391394712,210.89782908916737,264.01905597283275,95.004947890842018,68.805999999999997,-22.871000000000009,0.30379902731300379,-23.601239823659199,0.24457170812050577
20220121130000,426.07487851307866,0.70434959453135093,0.30635202279158941,0,-63.656796025736668,0,-3.1328460687173543E-002,1,1.3648458996623249,0,166.02799693980421,3.2139462340247440,7.2108037322331313,1.0152916658097444,0.92103694536127068,0.69910080036891031,0.48134182240044349,147.03594655938082,0.12922010191791300,92.893630974365735,169.83918432518351,203.25412610430618,254.45004687057909,94.998895912977432,68.995999999999995,-22.915666666666652,0.30075795335628980,-23.618184859381756,0.25297003810244756
20220121133000,425.62957987013471,0.71948380350485708,0.40443969222629034,0,-95.501904337750162,0,-0.12582345966495159,1,2.5641788731790154,0,164.06509080679626,3.0955124524220654,8.0499473718678622,1.1380528659216382,1.0083103317453848,0.73424663927526546,0.55345309245183838,148.95835044161615,0.12755243290269250,99.872513662751189,182.59880768002483,218.52413640677449,273.56628776392927,94.976196807074658,68.636666666666670,-22.618666666666655,0.31233331158670313,-23.320524612002856,0.27723865710703310
20220121140000,425.15620382691196,0.74739765346023646,0.45871701272533238,0,-102.09037227305032,0,-0.75782044722466224,0,2.0283131513531676,0,162.46791176230479,3.4629224816634530,7.7483010974106659,1.1676643040011001,1.0328850932873583,0.80869850210296823,0.59008385237452532,168.85222561138616,0.11252442738734489,97.309798470433265,177.91334697237806,212.91683662308378,266.54661382114642,94.949864257649722,68.266000000000005,-22.128000000000014,0.32997642912792402,-22.822874585053114,0.30153473522982094
20220121143000,424.66916376822803,0.82445358841992911,0.42244145236407254,0,-130.57557102603312,1,-2.8463562066668122,1,2.3604349874869208,1,166.29021543686875,3.4274924360744583,8.2185973216377821,1.2077393274087116,1.0868483508453888,0.87512203686870138,0.56774462638650192,117.55720068129523,0.16162344705289611,88.577298274232874,161.94755152563263,193.80985719438445,242.62694289307501,94.918050645182291,67.690666666666672,-20.912000000000006,0.37362050909688904,-21.582097048441653,0.53622603742851538
20220121150000,424.30403253358696,0.91197153421118338,0.80928784401336729,0,-50.486939491911947,1,0.61678683773865017,2,0.89718394848129801,0,170.57485176608603,4.0458746079579333,10.794842433960868,1.7355105204887233,1.4297081461676591,1.1127357624219376,0.78831979362299109,813.67001449131828,2.3350989543197337E-002,95.039295399026230,173.76214321803229,207.94890596136457,260.32735414877186,94.875526096354150,65.823666666666668,-19.424666666666667,0.44936097711610801,-20.131057099660296,0.32366727924714167
20220121153000,424.49962687268322,0.95805630501737216,1.6306577741171200,0,57.148567832982160,0,11.710171117895873,0,1.3733371406581774,1,173.05174210899295,4.5831399384731286,13.960675121928391,2.2503931903684267,1.7198296024679383,1.3339333449910495,1.1210273296050535,-2066.4561187003756,-9.1944851032933518E-003,108.95334219561329,199.20145841981289,238.39326896613443,298.44008397120717,94.832384482855915,64.565333333333328,-18.627333333333326,0.49876174703605031,-19.399624640146840,0.21182113813190950
20220121160000,424.45016066290481,0.93572734087820275,0.84799831263010161,0,40.508394155263709,1,10.768609466828936,0,0.47197671400530467,0,172.00907641778360,4.4075358363589840,12.244953054294035,1.8328163606107717,1.5640385561977241,1.2257665091725249,0.80963680552399886,-1097.9891703595019,-1.7304360109288736E-002,89.858857594089343,164.29065069471153,196.61394846389393,246.13733241692611,94.798754436690885,59.481333333333332,-17.943333333333328,0.60442564183792202,-18.786613294116307,0.25651108007666273
20220121163000,424.30966654409059,0.95676845708725855,0.90364742079461535,0,150.51377036610378,1,12.793485667341429,0,0.24857694289916341,2,163.66276659738901,3.5792807759102478,10.098418654613960,1.6916432315984788,1.3226264648887309,1.0409374662585744,0.83760328165054843,-327.16577559244877,-5.8074534127519339E-002,105.23152973873871,192.39679823744456,230.24982866230010,288.24546304658674,94.784579544270841,55.548666666666669,-16.869333333333316,0.72589226636452198,-17.763066431681210,0.35321508860806922
20220121170000,424.25392795868567,0.98468929684226814,0.95383834767621467,0,81.252741533855840,1,7.7427340510995686,0,1.0774437385597653,1,154.73488836310165,3.8967108895853353,10.781683892439315,1.7605626499944003,1.5412455709337767,1.1103647761599085,0.86225822220627102,-660.95935800409654,-2.8746094249084284E-002,102.28035676900869,187.00111282043474,223.79257129542364,280.16174306929128,94.744336611328123,52.978999999999999,-15.963000000000022,0.82824163893083880,-16.935392241583941,0.33958602286095074
20220121173000,423.07426455445972,1.0315954481336149,1.8516157747619133,0,205.41565240914147,0,24.235062236105112,0,-8.4749586011881761E-002,2,159.86260802426722,3.9916731003553925,12.234606476151511,2.4135825954203898,1.7272634651274434,1.3611704129294191,1.2048463777554319,-712.82819758834535,-2.6654388903639307E-002,113.57172978804212,207.64534389794773,248.49844328501894,311.09056309484379,94.657901835937494,49.996333333333332,-14.711333333333357,0.97689180579219326,-15.639635613335599,0.48700303027781372
20220121180000,422.35808819371238,1.0422816597095963,1.7549758558419448,0,186.08093157501278,0,26.654809474467879,0,0.32210641261101269,2,154.84862459998965,4.2433442059069595,12.711179112663833,2.4179783195115441,1.7188640277079308,1.2828048060770703,1.1765601329552182,-732.29418687452051,-2.5945856652356127E-002,116.84704664745189,213.63366772568338,255.66493746757209,320.06216340426431,94.571801589417191,45.224000000000004,-13.370333333333349,1.1942206593276787,-14.407849638340849,0.27965382372083764
20220121183000,421.86915307212712,1.0144444461667872,1.6448773275146404,0,161.49672305955502,0,26.782071430990317,0,1.9131888500668466,0,156.12449946044009,4.7522343761956281,12.681988053673992,2.3021394505950581,2.0016353047444579,1.4656902664574503,1.1409760531401774,-769.01970855914203,-2.4706779018185319E-002,102.48076541412063,187.36752374075843,224.23107158439626,280.71069339674773,94.488475867838545,41.721000000000004,-12.721000000000004,1.3393095747688990,-13.699708619011801,0.29097917502063342
20220121190000,421.15492357785575,0.99668435698528901,1.3458642129490321,0,126.93223216264754,0,22.158925660560101,0,1.6225331384485191,0,158.13758946068646,5.1457437897886278,14.609719971628968,2.3577632591034874,1.9859887378882222,1.4931728678482588,1.0341914717414067,-728.23060331317777,-2.6090636555998997E-002,93.335657164198764,170.64734917722086,204.22129302401160,255.66082508584847,94.416927619140623,38.173999999999999,-11.846999999999980,1.5245001303470429,-12.895463014390771,0.25021046742155262
20220121193000,420.80240359750894,0.97591589507918175,1.4762258976385862,0,123.34703309265734,0,26.417605753715712,0,1.2753000111727373,1,157.10469390429580,4.9837706598935609,14.877776122372142,2.4704723336741794,2.0020671095611684,1.4480210283262815,1.0844141924732562,-863.54779779405249,-2.2002256329685308E-002,99.355327462219833,181.65322635737502,217.39251706840227,272.14963463512288,94.353480219331772,36.028666666666666,-11.396333333333303,1.6354000510688502,-12.379587030264929,0.30702746172816886
20220121200000,420.50412586951052,0.95831981061888449,2.0372065000487058,0,179.77191691910372,0,29.152088823040391,0,1.3685763132285862,1,159.05306419699008,4.9486659500890253,16.503566764118609,2.6046863622514844,1.9797307935125510,1.5065203066967872,1.2755516743502144,-963.68522143615542,-1.9715981502429588E-002,109.60575388370670,200.39427506168340,239.82076583683221,300.22714066037986,94.272310113932292,34.090666666666664,-10.942333333333352,1.7471191314722780,-11.901035762362994,0.27375217804396368
20220121203000,420.71980890825438,0.96976017558362082,1.6960340331533572,0,106.15494564452645,0,21.950295593965979,0,0.73963846627005825,0,154.51124111969349,5.1413370981710411,15.976321971047843,2.4354882887004807,2.1618167357242921,1.5394403488315589,1.1647600899685913,-1241.9164297972579,-1.5298936018667325E-002,100.17371788508663,183.14950506261366,219.18318052365925,274.39133279324909,94.199032853298618,33.915666666666667,-10.738333333333344,1.7804321313580846,-11.613204440646655,0.16001283520259940
20220121210000,420.56442683210798,0.97057367447417187,1.3169489996379136,0,65.042957168192416,0,17.757454355472536,0,0.47751854676996158,0,155.79999657310501,5.2117216702254696,13.658471408954561,2.3250369819918486,1.9944966828089972,1.4475984676544575,1.0267178067069858,-1387.9329265930696,-1.3689422331552367E-002,95.125572471324006,173.91988522285354,208.13768285326540,260.56368041635079,94.166224131293390,33.699333333333335,-10.651666666666642,1.7986088630405959,-11.602823872884073,0.11903566707568591
20220121213000,420.56149409167676,0.95342906551101636,2.0081458629753079,0,36.463185014608193,0,20.370677512674764,0,0.98095798682762214,1,157.17444352632683,5.3806760406497238,16.698315243659735,2.6202529129242556,2.0661720075554251,1.5272920921422442,1.2678481768051557,-4660.1254260760088,-4.0771434806634969E-003,107.88747219163712,197.25270811074222,236.06111256395059,295.52050089941918,94.116599172730261,33.438333333333333,-10.784666666666681,1.7866959694040907,-11.658104145954212,0.15061664141512157
20220121220000,420.95839944158951,0.94341250319371883,1.6914975470844660,0,8.2439297443371320,1,20.483489612571546,0,0.33428333416029982,1,152.92658509717936,5.8464706867710134,15.842686581977015,2.6197268084940251,2.0759935741997331,1.5187890205351744,1.1624999126581972,-15883.580590324604,-1.1962038340129521E-003,101.10468578525395,184.85161130110245,221.22016696713121,276.94139810287129,94.072915319878462,34.743666666666670,-11.403000000000020,1.6673613416282131,-12.202400910271592,0.15719179170857064
20220121223000,421.09217201967658,0.94548737966509933,1.9136525908186170,0,-5.0952622970965527,1,19.742431205386925,0,0.65541525170820958,0,152.87937706091921,5.7185983904717999,15.611810836462713,2.6006879574539541,2.1715515200936122,1.5516575722108907,1.2361992763815897,30885.867435067881,6.1516808747379907E-004,104.39723099829405,190.87143405397592,228.42435731813660,285.96018954200395,93.999474009331593,35.711333333333336,-11.728333333333353,1.6003906011334548,-12.463386176639119,0.11151094393910600